[[{"header":{"parameterUnit":"m.s-1","parameterCategory":1,"la1":30.2991,"la2":30.254,"lo1":-89.0895,"lo2":-89.0444,"dy":0.0017,"dx":0.0017,"nx":28,"ny":28,"refTime":"2024-05-01T09:00:00:Z","depth":0,"parameterNumber":2,"parameterNumberName":"U-component_of_WINDS"},"data":[0,0,0,0,0,0,0,0,0,0,0,0,0,0,0,0,0,0,0,0,0,0,0,0,0,0,0,0,0,0,0,0,0,0,0,0,0,0,0,0,0,0,0,0,0,0,0,0,0,0,0,0,0,0,0,0,0,0,-1.1859,-1.1858,0,-1.177,-1.1769,-1.1768,-1.1727,-1.1727,-1.1727,-1.1727,-1.1634,-1.1631,-1.1629,0,0,0,0,0,0,0,0,0,0,0,0,0,-1.1991,-1.1989,-1.1859,-1.1858,-1.1857,-1.1771,-1.1769,-1.1768,-1.1727,-1.1727,-1.1727,-1.1727,-1.1635,-1.1632,-1.1629,0,0,0,0,0,0,0,0,0,0,0,0,0,-1.1921,-1.1989,-1.1859,-1.1826,-1.1822,-1.1771,-1.1769,-1.1768,-1.1727,-1.1727,-1.1727,-1.1727,-1.1636,-1.1632,-1.1628,-1.1603,0,0,-1.1617,-1.1615,0,0,0,0,0,0,0,0,-1.1926,-1.1917,-1.1832,-1.1828,-1.1824,-1.176,-1.1782,-1.1712,-1.1727,-1.1763,-1.1727,-1.1727,-1.1675,-1.1668,-1.1651,-1.1599,-1.1595,-1.1616,-1.1614,-1.1612,-1.1611,0,0,0,0,0,0,0,-1.193,-1.192,-1.1824,-1.1831,-1.1826,-1.1815,-1.1805,-1.1769,-1.172,-1.176,-1.1756,-1.1747,-1.1673,-1.1655,-1.1649,-1.1593,-1.1616,-1.1613,-1.1611,-1.1609,-1.1516,-1.1516,0,0,0,0,0,0,-1.1941,-1.1925,-1.1827,-1.1821,-1.1876,-1.1813,-1.1802,-1.178,-1.172,-1.1711,-1.1747,-1.1745,-1.1662,-1.1653,-1.1646,-1.1613,-1.1612,-1.1609,-1.1607,-1.1517,-1.1516,-1.1516,0,0,0,0,0,0,-1.1944,-1.1933,-1.183,-1.1872,-1.1858,-1.181,-1.1786,-1.1778,-1.176,-1.171,-1.1701,-1.1737,-1.1661,-1.1651,-1.1614,-1.1609,-1.1607,-1.1604,-1.1517,-1.1516,-1.1516,-1.1546,0,0,0,0,0,0,-1.1948,-1.1934,-1.1924,-1.1872,-1.1856,-1.1801,-1.1786,-1.1777,-1.1754,-1.1751,-1.1699,-1.169,-1.1661,-1.162,-1.1611,-1.1603,-1.1601,-1.1517,-1.1517,-1.1516,-1.1545,-1.1547,-1.1548,0,0,0,0,0,-1.1953,-1.1935,-1.1924,-1.1912,-1.1843,-1.1801,-1.1791,-1.1758,-1.1754,-1.1743,-1.1711,-1.1692,-1.1611,-1.1617,-1.1606,-1.1597,-1.1517,-1.1517,-1.1516,-1.1545,-1.1547,-1.1548,0,0,0,0,0,0,-1.1986,-1.1927,-1.1914,-1.1879,-1.1845,-1.1794,-1.1779,-1.1761,-1.1727,-1.1725,-1.1685,-1.1674,-1.1641,-1.1615,-1.1623,-1.157,-1.1562,-1.156,-1.1588,-1.1589,-1.1591,-1.1597,-1.1597,0,0,0,0,0,-1.199,-1.1961,-1.1911,-1.1885,-1.1869,-1.1827,-1.1807,-1.1785,-1.1748,-1.1733,-1.1698,-1.1663,-1.1629,-1.1608,-1.1574,-1.1542,-1.153,-1.1531,-1.1533,-1.1534,-1.1532,-1.1514,-1.1513,-1.1515,-1.1515,-1.1515,0,0,-1.1996,-1.196,-1.1944,-1.1891,-1.1862,-1.1833,-1.1815,-1.1785,-1.1763,-1.1728,-1.1692,-1.1666,-1.1623,-1.1589,-1.1572,-1.1566,-1.1529,-1.1533,-1.1535,-1.1532,-1.1513,-1.1513,-1.1513,-1.1515,-1.1515,-1.1515,0,0,-1.1993,-1.1963,-1.1938,-1.191,-1.1867,-1.184,-1.1835,-1.1786,-1.1767,-1.1731,-1.1705,-1.1678,-1.1621,-1.1592,-1.157,-1.1559,-1.154,-1.1549,-1.1556,-1.1538,-1.1538,-1.1538,-1.1534,-1.1533,-1.1547,-1.1547,-1.1547,0,-1.2006,-1.1961,-1.1928,-1.1899,-1.1877,-1.1846,-1.1821,-1.1795,-1.1743,-1.1728,-1.1724,-1.1653,-1.1622,-1.1581,-1.1578,-1.1562,-1.1554,-1.1554,-1.1541,-1.1541,-1.154,-1.1536,-1.1534,-1.1549,-1.1548,-1.1548,-1.1548,0,-1.1979,-1.1949,-1.1934,-1.1886,-1.1862,-1.1836,-1.1799,-1.1778,-1.1759,-1.1732,-1.1696,-1.1658,-1.1617,-1.1606,-1.1586,-1.1562,-1.156,-1.1549,-1.154,-1.1542,-1.1537,-1.1535,-1.1551,-1.155,-1.155,-1.1549,0,0,-1.1992,-1.1928,-1.1923,-1.1902,-1.1853,-1.1829,-1.1801,-1.1762,-1.1746,-1.1712,-1.1687,-1.1641,-1.1631,-1.1606,-1.1583,-1.1568,-1.1562,-1.1558,-1.1557,-1.156,-1.1534,-1.1543,-1.1541,-1.155,-1.155,-1.1549,-1.1538,0,-1.1982,-1.1932,-1.1902,-1.1864,-1.1836,-1.1808,-1.1784,-1.1751,-1.1726,-1.1699,-1.1671,-1.1639,-1.1628,-1.1613,-1.1597,-1.1566,-1.1556,-1.1567,-1.1527,-1.1526,-1.1537,-1.1539,-1.1547,-1.1538,-1.1536,-1.1536,-1.1535,0,-1.1963,-1.1931,-1.189,-1.1846,-1.1833,-1.1812,-1.1775,-1.1749,-1.1712,-1.1695,-1.1669,-1.1646,-1.1616,-1.1611,-1.1569,-1.1577,-1.1559,-1.1542,-1.1541,-1.1535,-1.153,-1.1533,-1.1535,-1.1533,-1.1532,-1.1532,-1.1533,0,-1.1977,-1.1923,-1.1892,-1.1875,-1.1822,-1.1809,-1.1786,-1.175,-1.1729,-1.1696,-1.1682,-1.1646,-1.1626,-1.1599,-1.1567,-1.1566,-1.1529,-1.1521,-1.1514,-1.1515,-1.1506,-1.1507,-1.1505,-1.1496,-1.1496,-1.1496,-1.1496,0,-1.1968,-1.1944,-1.1898,-1.1879,-1.1851,-1.1818,-1.1792,-1.1767,-1.1735,-1.1711,-1.1684,-1.1662,-1.1622,-1.1595,-1.157,-1.1539,-1.1531,-1.1516,-1.1509,-1.1518,-1.152,-1.1505,-1.1504,-1.1495,-1.1496,-1.1496,-1.1496,0,-1.1978,-1.1946,-1.191,-1.1865,-1.1853,-1.1835,-1.1796,-1.1776,-1.1751,-1.172,-1.1711,-1.1671,-1.1638,-1.1604,-1.1559,-1.1542,-1.1512,-1.1504,-1.1525,-1.1521,-1.1516,-1.1517,-1.1503,-1.15,-1.1495,-1.1495,-1.1495,0,-1.1974,-1.1955,-1.1908,-1.189,-1.1869,-1.184,-1.1819,-1.1786,-1.1765,-1.1723,-1.1709,-1.1674,-1.1644,-1.1593,-1.1559,-1.1525,-1.1515,-1.1513,-1.1509,-1.1519,-1.1515,-1.1516,-1.1514,-1.1514,-1.1514,-1.1514,-1.1514,0,-1.197,-1.1956,-1.1927,-1.1893,-1.1869,-1.184,-1.181,-1.1797,-1.1758,-1.1736,-1.1703,-1.168,-1.1635,-1.16,-1.1563,-1.1539,-1.152,-1.1516,-1.1512,-1.152,-1.1533,-1.1526,-1.1528,-1.1516,-1.1516,-1.1516,-1.1516,-1.1515,-1.1973,-1.1955,-1.192,-1.1889,-1.1863,-1.1837,-1.1816,-1.1789,-1.1761,-1.1722,-1.1705,-1.1671,-1.1636,-1.1583,-1.1561,-1.1534,-1.1529,-1.1523,-1.1522,-1.1521,-1.1523,-1.1539,-1.1527,-1.1527,-1.1527,-1.1527,-1.1527,0,-1.1968,-1.1944,-1.1916,-1.1876,-1.1852,-1.1838,-1.1805,-1.1785,-1.1756,-1.1725,-1.1697,-1.1659,-1.1626,-1.1592,-1.1557,-1.1542,-1.1533,-1.1534,-1.1534,-1.1529,-1.153,-1.1536,-1.1542,-1.1542,-1.1542,-1.1542,-1.1542,-1.1542,-1.1962,-1.1932,-1.1914,-1.1871,-1.1848,-1.1815,-1.1797,-1.1773,-1.1748,-1.1707,-1.168,-1.1658,-1.1626,-1.1589,-1.1559,-1.1549,-1.1537,-1.1541,-1.1529,-1.153,-1.1529,-1.1528,-1.1534,-1.1539,-1.1539,-1.1531,-1.1531,-1.1531]},{"header":{"parameterUnit":"m.s-1","parameterCategory":1,"la1":30.2991,"la2":30.254,"lo1":-89.0895,"lo2":-89.0444,"dy":0.0017,"dx":0.0017,"nx":28,"ny":28,"refTime":"2024-05-01T09:00:00:Z","depth":0,"parameterNumber":3,"parameterNumberName":"V-component_of_WINDS"},"data":[0,0,0,0,0,0,0,0,0,0,0,0,0,0,0,0,0,0,0,0,0,0,0,0,0,0,0,0,0,0,0,0,0,0,0,0,0,0,0,0,0,0,0,0,0,0,0,0,0,0,0,0,0,0,0,0,0,0,1.4889,1.4889,0,1.4828,1.4827,1.4827,1.4813,1.4813,1.4814,1.4814,1.4746,1.4744,1.4741,0,0,0,0,0,0,0,0,0,0,0,0,0,1.499,1.4988,1.4889,1.4889,1.4888,1.4828,1.4827,1.4826,1.4813,1.4813,1.4814,1.4814,1.4747,1.4744,1.4741,0,0,0,0,0,0,0,0,0,0,0,0,0,1.4939,1.4987,1.4889,1.4874,1.4872,1.4828,1.4827,1.4826,1.4813,1.4813,1.4814,1.4814,1.4747,1.4744,1.4741,1.4707,0,0,1.4731,1.4729,0,0,0,0,0,0,0,0,1.4942,1.4935,1.4877,1.4875,1.4873,1.4829,1.4838,1.4786,1.4812,1.4835,1.4814,1.4815,1.4773,1.4767,1.4754,1.4704,1.4701,1.473,1.4728,1.4727,1.4726,0,0,0,0,0,0,0,1.4945,1.4938,1.4865,1.4876,1.4873,1.4868,1.4862,1.4828,1.48,1.4833,1.4832,1.4825,1.4771,1.4757,1.4752,1.47,1.473,1.4728,1.4725,1.4724,1.4618,1.4618,0,0,0,0,0,0,1.4952,1.4941,1.4867,1.4863,1.491,1.4866,1.4859,1.4842,1.4801,1.4795,1.4825,1.4825,1.4763,1.4756,1.475,1.4707,1.4727,1.4724,1.4722,1.4619,1.4618,1.4617,0,0,0,0,0,0,1.4955,1.4946,1.4869,1.4902,1.4892,1.4864,1.4845,1.484,1.4826,1.4795,1.4789,1.4815,1.4763,1.4755,1.4718,1.4705,1.4722,1.4719,1.462,1.4619,1.4618,1.4622,0,0,0,0,0,0,1.4957,1.4947,1.4935,1.4902,1.489,1.484,1.4844,1.4839,1.4821,1.4821,1.4785,1.4779,1.4763,1.4723,1.4715,1.4701,1.4717,1.4621,1.462,1.4618,1.4623,1.4621,1.462,0,0,0,0,0,1.4961,1.4937,1.4934,1.4925,1.4874,1.4839,1.4832,1.4816,1.482,1.4807,1.4787,1.478,1.4708,1.472,1.471,1.4694,1.4622,1.462,1.4618,1.4624,1.4622,1.462,0,0,0,0,0,0,1.4967,1.4932,1.4929,1.4893,1.487,1.4837,1.482,1.4814,1.4787,1.4787,1.4766,1.4758,1.4723,1.4705,1.4718,1.4659,1.4665,1.4661,1.4672,1.467,1.4668,1.4673,1.4714,0,0,0,0,0,1.4964,1.494,1.4911,1.4882,1.4871,1.4848,1.4832,1.4821,1.4795,1.4784,1.4761,1.4734,1.4706,1.4687,1.4659,1.4621,1.4612,1.4605,1.4604,1.4603,1.4599,1.4578,1.4574,1.4612,1.4612,1.4612,0,0,1.4958,1.4936,1.4922,1.4883,1.4863,1.4838,1.4839,1.4811,1.4792,1.4779,1.4744,1.4726,1.4695,1.4658,1.464,1.4642,1.4587,1.46,1.46,1.4597,1.4576,1.4572,1.4569,1.461,1.4611,1.4611,0,0,1.4934,1.4915,1.489,1.4871,1.4842,1.4827,1.4821,1.4789,1.4777,1.4742,1.4732,1.4708,1.4659,1.4637,1.462,1.4589,1.4581,1.458,1.4571,1.455,1.4547,1.4544,1.4533,1.4529,1.4577,1.4577,1.4577,0,1.4929,1.4892,1.4877,1.485,1.4833,1.4823,1.4796,1.4778,1.474,1.4728,1.4731,1.467,1.4648,1.4606,1.4599,1.4585,1.4577,1.4583,1.4549,1.4546,1.4543,1.4532,1.4528,1.4577,1.4577,1.4577,1.4577,0,1.4887,1.4861,1.4844,1.4811,1.4791,1.4765,1.4745,1.4727,1.4719,1.4703,1.4667,1.4641,1.4607,1.4596,1.4587,1.4553,1.4555,1.4554,1.4559,1.454,1.4529,1.4525,1.4577,1.4577,1.4577,1.4577,0,0,1.4863,1.4824,1.4817,1.4802,1.477,1.4749,1.4722,1.4691,1.4676,1.4651,1.4627,1.4586,1.4586,1.4566,1.4554,1.4536,1.4513,1.4537,1.4536,1.4533,1.4473,1.4474,1.4469,1.4508,1.4507,1.4507,1.4475,0,1.4835,1.4788,1.4774,1.4734,1.471,1.47,1.4676,1.4653,1.4638,1.4614,1.4596,1.4568,1.457,1.4558,1.454,1.4519,1.45,1.4522,1.4484,1.4483,1.4492,1.4463,1.4463,1.4435,1.4471,1.447,1.447,0,1.4795,1.4771,1.4729,1.4701,1.469,1.4669,1.464,1.4618,1.4591,1.4581,1.456,1.455,1.452,1.4528,1.4486,1.4501,1.4485,1.4472,1.4471,1.4466,1.4475,1.4457,1.4426,1.4421,1.4463,1.4464,1.4464,0,1.4781,1.4739,1.4708,1.4696,1.4662,1.4648,1.4632,1.4607,1.459,1.4564,1.4552,1.4522,1.4506,1.4483,1.4464,1.4472,1.4424,1.443,1.4413,1.4414,1.4403,1.4404,1.4368,1.4394,1.4394,1.4394,1.4394,0,1.475,1.4725,1.4702,1.4683,1.4654,1.4638,1.4609,1.4594,1.4571,1.4548,1.4538,1.4516,1.4494,1.4468,1.4454,1.4421,1.4414,1.4404,1.44,1.4404,1.4406,1.4393,1.4394,1.4393,1.4393,1.4393,1.4393,0,1.473,1.4714,1.468,1.4652,1.4644,1.4624,1.4599,1.4579,1.4565,1.4535,1.4527,1.4503,1.4473,1.4453,1.4414,1.4404,1.4369,1.4365,1.4378,1.4376,1.4361,1.4363,1.4315,1.4308,1.4339,1.4339,1.4339,0,1.4711,1.4691,1.4662,1.4647,1.4632,1.4608,1.4591,1.4574,1.4556,1.4526,1.451,1.448,1.4455,1.4407,1.4385,1.4355,1.4351,1.4336,1.4346,1.4351,1.435,1.4351,1.4349,1.4334,1.4334,1.4334,1.4334,0,1.4679,1.4672,1.4649,1.4623,1.4603,1.4581,1.4559,1.4547,1.4527,1.4507,1.4478,1.4458,1.442,1.439,1.4358,1.4341,1.4333,1.4331,1.4326,1.4329,1.4338,1.4333,1.4373,1.4332,1.4332,1.4332,1.4332,1.4332,1.4658,1.464,1.4617,1.4592,1.4574,1.4554,1.4535,1.4518,1.4494,1.4463,1.4454,1.4423,1.4397,1.4354,1.4337,1.4311,1.4313,1.4305,1.4303,1.4301,1.4301,1.4343,1.4305,1.4305,1.4306,1.4306,1.4306,0,1.4625,1.461,1.4587,1.4558,1.4538,1.4535,1.451,1.4493,1.4467,1.4444,1.442,1.4386,1.4357,1.4334,1.4303,1.4287,1.4283,1.428,1.4281,1.4277,1.4301,1.4309,1.4284,1.4284,1.4284,1.4284,1.4284,1.4284,1.4606,1.4576,1.4567,1.4528,1.4513,1.4484,1.447,1.4451,1.4433,1.4396,1.4373,1.4359,1.4335,1.4303,1.4276,1.427,1.4259,1.4256,1.4249,1.4272,1.4275,1.4277,1.4284,1.4254,1.4254,1.4226,1.4226,1.4226]}]]